Location: Unnamed
(52.8822°N, 118.0859°W)
Time: 14:43:11
(UTC-07:00)

ISS - Visible Passes

Search period start: 09 February 2026 00:00
Search period end: 19 February 2026 00:00
Orbit: 414 x 429 km, 51.6° (Epoch: 9 February)

Date Brightness Start Highest point End Pass type
(mag) Time Alt. Az. Time Alt. Az. Time Alt. Az.
10 Feb -0.2 07:39:44 10° SSE 07:40:24 10° SE 07:41:04 10° SE visible
13 Feb -0.9 06:53:50 10° S 06:55:55 15° SE 06:57:59 10° ESE visible
14 Feb -0.7 06:08:10 10° SSE 06:09:05 11° SE 06:10:00 10° ESE visible
15 Feb -2.0 06:55:19 10° SW 06:58:15 29° SSE 07:01:12 10° E visible
16 Feb -1.6 06:09:35 15° S 06:11:19 22° SSE 06:13:57 10° E visible
17 Feb -1.2 05:24:34 16° SE 05:24:34 16° SE 05:26:31 10° ESE visible
17 Feb -3.0 06:57:34 11° WSW 07:00:40 48° SSE 07:03:55 10° E visible
18 Feb -2.7 06:12:26 27° SSW 06:13:37 38° SSE 06:16:47 10° E visible
